Presure
129 120 129 135 132 134 119 129 129 132 133 148 136 124 135 125 132 131 125 120 128 132 140 130 124 127 123 135 136 132 133 125 124 121 125 130 139 126 125 149 150 136 138
139 134 132 133 126 134 132 146 132 131 132 136 135 119 124 127 124 118 119 120 130 128 126 128 128 136 136 140 138 127 139 125 139 127 143 125 139 143 124 149 134 151 153
130 127 119 137 127 128 139 139 133 133 132 127 134 133 140 132 132 128 129 122 124 120 127 128 127 122 126 130 130 127 131 120 123 133 138 137 120 130 127 136 123 125 138
132 135 133 126 121 127 126 120 129 130 128 133 134 134 135 141 127 124 125 128 126 130 126 134 129 126 125 120 125 138 130 133 130 153 125 129 141 131 138 130 158 118 138
139 138 139 133 132 129 122 117 124 134 132 128 127 131 132 133 128 128 127 127 125 125 130 132 129 144 142 120 131 132 131 127 133 133 148 128 131 124 136 114 136 144 116
127 128 138 125 127 148 131 124 133 122 125 116 133 132 128 129 121 118 114 123 131 133 146 144 134 131 135 148 129 127 124 135 152 127 126 134 126 125 134 113 135 142 119
123 123 123 131 135 119 151 151 176 156 128 120 119 119 137 124 125 132 140 124 123 134 130 121 127 130 158 138 139 117 121 153 120 143 153 141 121 122 136 133 134 121 126
111 128 131 115 124 132 147 148 156 127 140 130 129 139 128 128 139 135 119 136 113 155 150 128 130 111 126 138 148 133 109 144 150 140 139 126 141 148 125 152 137 143 122
136 139 127 136 128 130 132 121 156 154 157 132 126 130 142 141 121 133 118 112 120 127 126 136 142 120 118 130 119 128 142 144 139 138 147 138 142 135 153 156 128 124 153
113 124 126 126 140 130 138 126 149 143 127 140 165 155 114 144 148 135 131 147 138 129 146 115 129 149 141 137 146 133 138 143 128 143 149 120 134 130 131 112 132 134 126
138 127 124 126 134 163 134 142 141 135 131 160 167 164 133 137 136 134 150 137 151 149 128 139 139 149 132 136 129 141 156 155 133 138 144 143 173 134 149 147 136 124 154
118 132 117 133 149 145 147 151 149 157 128 121 138 136 124 142 125 138 152 132 144 130 153 164 138 133 146 132 134 173 148 141 152 178 156 143 159 144 129 157 173 152 152
167 155 157 167 136 125 113 117 140 140 125 206 142 167 176 146 141 140 132 150 156 130 176 139 157 129 141 139 158 170 137 146 142 135 161 182 133 110 164 166 151 161 151
162 147 142 153 148 135 127 123 116 149 141 158 118 173 146 154 131 144 163 147 150 142 167 133 132 141 145 143 137 137 161 137 161 150 140 156 142 141 143 139 153 122 153
126 120 125 129 127 121 150 134 139 119 146 150 136 158 135 158 125 131 126 150 165 145 178 152 144 133 140 183 149 161 175 138 142 144 153 173 182 146 139 173 135 143 148
121 146 128 128 138 159 144 126 146 143 151 114 164 159 135 161 132 125 134 150 145 178 145 122 141 132 163 186 173 143 135 143 152 145 135 164 167 136 135 144 140 169 148
127 164 142 156 156 141 114 148 147 117 147 139 135 133 126 117 136 167 168 168 147 135 170 135 129 131 134 127 167 126 126 151 133 191 134 135 174 144 135 185 127 136 125
165 163 165 161 116 166 168 169 166 165 165 161 167 171 167 163 175 146 126 137 128 136 185 158 171 184 172 179 141 139 143 144 132 137 151 150 143 127 151 167 146 186 200
173 170 169 168 168 170 172 195 200 174 172 170 154 171 171 167 166 178 168 171 157 166 173 186 192 176 177 184 184 184 187 190 137 191 190 185 183 188 194 176 165 174 177
175 173 173 172 169 164 164 173 177 176 172 169 170 172 172 177 173 175 181 188 175 185 184 184 182 179 188 184 197 182 188 182 185 190 194 197 194 192 209 224 214 213 212
188 187 186 183 174 173 173 173 178 180 186 185 180 181 182 184 181 179 189 180 182 180 171 187 182 185 182 187 184 186 182 198 215 215 216 217 217 214 215 218 221 234 236
202 196 194 192 191 191 188 185 186 186 176 179 192 193 193 186 189 189 188 187 189 203 200 195 196 205 201 204 200 202 228 236 219 220 216 238 237 238 238 233 229 233 233
302 257 257 231 232 217 220 209 205 203 203 202 202 204 204 205 203 200 210 209 206 200 220 235 230 225 170 253 242 236 229 225 225 223 225 233 228 245 241 238 242 242 244
312 311 321 321 310 262 274 257 251 247 228 250 226 243 246 276 281 275 272 251 252 253 243 241 240 244 274 261 249 246 257 244 240 232 219 218 215 220 220 255 225 231 240
282 286 288 288 298 300 301 302 305 305 305 314 280 304 248 251 240 243 241 244 245 277 242 242 238 237 247 256 234 250 252 254 275 272 269 264 263 261 258 260 258 243 245
266 273 277 280 278 280 284 289 293 295 294 296 303 307 306 312 317 315 292 290 287 287 284 272 270 269 268 266 266 267 261 255 253 256 265 259 254 254 255 255 254 252 251
Wind_Speed
14 8 10 6 8 10 5 6 9 11 13 16 13 13 19 15 22 24 23 22 26 31 34 28 25 25 28 36 34 31 32 32 32 30 33 37 35 35 33 40 40 40 41
17 14 16 13 11 8 6 2 4 6 7 9 6 5 7 11 12 13 15 18 22 22 24 27 28 32 32 28 32 23 33 24 35 24 40 25 36 39 28 38 36 37 36
21 20 16 19 18 20 12 8 4 3 2 1 2 4 6 7 12 13 15 15 18 17 23 26 25 25 29 29 30 29 31 21 22 33 34 33 22 27 25 30 21 26 35
29 29 24 23 14 17 19 14 18 11 9 6 4 7 8 8 5 6 9 13 15 22 17 19 19 21 22 23 27 25 29 27 28 32 22 27 36 22 31 24 39 19 33
37 34 32 29 29 27 20 13 21 28 19 15 13 10 10 8 11 9 8 10 12 17 24 23 19 25 24 18 22 24 26 27 26 25 25 27 30 20 35 17 32 40 17
36 33 40 26 26 38 33 28 33 18 26 17 21 18 15 14 18 18 12 12 18 20 28 28 25 25 26 27 21 22 25 26 34 27 26 21 25 25 31 13 35 37 15
33 34 30 41 41 20 38 41 43 38 24 25 23 24 24 23 21 25 23 22 19 25 22 22 27 25 33 30 30 23 23 39 21 33 37 28 22 24 26 29 30 13 18
26 44 49 22 36 37 50 46 48 28 33 31 32 37 32 30 33 29 27 29 20 39 37 28 34 15 29 35 39 34 20 42 44 38 34 29 41 43 29 44 33 38 15
58 60 49 44 47 50 45 34 50 47 50 35 34 37 43 36 36 37 27 26 32 35 35 41 45 29 29 38 29 37 47 48 42 43 49 40 46 41 53 54 33 30 40
33 49 47 51 67 53 64 38 67 55 41 47 58 51 34 44 45 41 43 47 44 39 56 30 40 59 52 46 53 45 51 53 38 53 54 32 42 40 40 20 41 43 38
70 58 49 56 63 68 63 54 59 26 28 55 64 60 38 44 47 47 57 46 56 58 43 54 54 61 45 51 40 52 59 57 49 55 59 59 57 46 58 57 47 37 61
50 74 47 75 52 62 81 81 50 64 36 37 54 48 43 58 46 54 56 46 52 49 65 67 57 54 63 51 54 69 71 60 67 62 65 61 63 63 47 63 58 64 66
77 74 76 75 85 36 40 39 60 60 41 86 67 57 67 69 64 65 53 73 76 51 76 65 77 54 69 64 76 80 64 74 68 59 65 67 58 38 73 67 62 72 69
83 63 74 77 75 81 49 35 43 79 73 85 44 90 69 76 54 68 81 80 83 77 81 59 62 70 81 73 64 66 81 64 78 67 71 77 70 65 72 66 75 52 75
60 60 65 76 68 58 96 79 84 36 80 84 64 90 61 89 55 61 58 84 82 86 94 78 76 64 78 91 81 77 92 70 78 80 83 83 91 74 66 89 67 75 73
63 91 75 75 90 104 95 71 94 91 88 39 104 96 66 94 62 54 75 85 84 100 82 56 84 66 86 100 92 91 71 80 79 84 71 91 88 70 70 79 75 86 83
84 109 94 99 99 83 43 101 98 46 97 93 85 77 56 44 85 105 105 103 85 82 101 82 69 71 74 65 91 66 66 88 74 119 76 77 104 86 73 118 66 73 65
113 113 116 112 53 111 116 122 120 121 120 113 116 118 111 103 118 97 71 83 72 89 129 101 107 121 108 119 86 86 95 94 67 83 94 96 89 71 96 108 92 122 131
128 127 127 126 125 127 127 129 129 130 127 126 108 127 127 122 118 132 119 122 98 119 131 136 139 118 124 130 136 137 136 136 80 134 134 127 124 131 136 120 97 95 92
133 132 134 136 134 123 123 138 140 138 135 130 132 133 134 142 135 132 140 143 124 139 139 138 133 130 142 138 147 136 142 131 138 142 145 146 143 140 145 137 137 133 130
147 148 149 148 143 139 140 143 148 150 155 154 146 146 147 148 142 140 152 143 146 141 120 152 141 149 142 151 142 143 133 158 159 153 150 148 146 142 141 140 138 129 125
152 151 150 150 150 151 152 150 153 155 135 135 159 159 159 150 154 155 155 153 154 161 160 156 158 163 159 163 160 154 154 143 149 145 143 134 131 129 128 129 130 129 126
77 127 132 145 145 159 157 162 163 162 165 165 166 168 167 167 164 160 166 167 163 156 162 157 162 159 102 135 142 143 147 148 144 142 139 132 131 125 128 130 127 128 124
36 42 37 44 60 118 116 132 139 145 160 148 164 154 152 131 124 131 133 146 144 142 148 147 145 141 122 129 133 132 126 131 131 131 134 135 136 137 137 118 134 132 127
44 45 49 55 53 55 57 60 61 66 72 73 119 100 144 142 148 147 148 146 144 123 142 142 141 140 139 130 139 133 130 127 114 113 114 116 116 119 121 121 121 125 126
50 53 56 59 65 68 71 74 77 80 84 89 88 84 87 84 85 89 114 117 117 120 122 130 128 126 126 125 124 123 123 122 120 118 116 116 117 118 119 120 120 120 120
Wind_Direction
279 256 280 229 186 146 276 137 109 84 59 33 50 46 38 53 47 45 43 42 31 32 25 31 40 40 44 29 30 35 36 47 45 48 47 42 32 45 50 26 23 39 38
221 242 274 280 294 274 221 153 134 106 89 78 49 109 49 30 42 48 37 31 22 21 27 21 22 15 14 18 15 33 22 51 21 42 11 46 21 17 48 14 30 19 17
238 249 264 258 280 293 265 238 232 222 176 239 10 350 351 17 14 17 7 19 11 12 12 11 8 13 10 4 6 12 10 38 37 10 5 9 44 35 32 19 48 43 25
243 236 236 258 263 266 285 288 299 268 279 267 287 295 307 338 355 25 11 352 352 339 354 353 354 352 356 2 356 344 351 352 357 351 8 7 350 18 2 10 348 44 12
247 248 248 245 250 261 270 250 283 290 284 287 292 274 288 304 312 324 327 333 342 336 332 334 339 332 331 349 339 333 337 345 339 343 342 353 351 9 348 12 351 349 22
251 259 256 265 264 252 261 267 261 265 278 278 277 286 292 291 300 307 297 309 316 323 316 313 319 325 323 320 330 333 333 323 327 336 344 327 340 349 336 2 342 336 8
258 256 263 261 261 264 262 257 272 264 259 274 283 293 277 291 288 282 292 295 298 302 302 313 310 313 309 311 317 319 318 319 325 323 322 315 328 332 323 324 325 358 330
263 264 264 271 270 265 265 263 260 271 275 266 270 274 280 285 282 278 287 296 295 300 298 301 304 307 307 311 311 308 307 312 315 314 311 312 317 318 320 317 317 319 317
256 254 277 273 276 276 270 267 265 256 262 276 280 275 274 278 280 283 282 285 291 290 295 300 298 298 300 300 297 304 309 310 307 306 310 308 311 308 311 311 307 310 309
252 271 269 276 265 276 272 251 267 262 265 268 268 273 264 285 284 280 280 291 291 290 296 287 293 299 299 298 297 295 301 301 296 304 302 296 300 297 299 297 302 303 303
256 263 272 261 269 261 268 261 264 266 268 262 264 270 273 283 281 279 290 285 292 290 286 290 295 298 286 295 289 296 296 293 296 298 296 296 299 296 299 301 296 294 300
260 260 250 269 252 265 262 264 248 261 252 244 275 274 264 287 265 284 279 278 277 282 288 284 284 288 290 288 293 293 293 296 292 292 288 292 286 296 290 296 284 292 292
256 247 254 259 262 248 240 247 273 263 252 258 278 263 268 280 282 284 280 287 286 278 287 282 284 281 286 287 288 291 292 290 290 290 280 296 288 280 296 282 294 283 289
257 252 255 254 254 267 263 248 253 272 276 274 254 279 276 278 271 274 277 280 280 285 278 274 278 283 284 286 286 286 277 283 282 290 286 286 282 283 285 286 282 288 283
258 260 263 261 266 273 266 276 275 261 274 275 267 279 280 279 271 273 278 273 279 279 286 282 279 282 283 289 281 289 285 284 283 283 284 290 295 283 281 295 282 284 286
259 258 261 259 260 261 264 278 270 274 274 254 276 276 275 278 269 268 278 268 273 286 271 276 279 279 286 292 286 280 281 280 286 280 282 288 282 283 282 284 282 280 282
256 259 258 260 261 265 275 269 269 270 271 271 275 278 278 272 275 277 281 284 281 278 285 281 280 282 281 278 280 278 280 286 281 291 281 281 292 279 279 293 280 281 280
262 263 264 264 263 264 265 266 269 271 273 275 276 278 278 275 282 273 278 278 279 278 288 272 284 288 287 290 281 280 277 278 280 280 282 282 279 280 276 286 279 284 286
258 260 262 264 266 267 269 261 257 271 272 273 276 275 276 278 278 278 279 280 277 279 282 280 277 283 285 284 287 286 287 287 281 288 288 286 286 289 288 284 288 286 285
257 258 259 260 263 265 267 268 268 269 271 272 273 275 276 275 277 277 278 278 281 281 282 283 283 283 283 285 282 285 285 285 285 285 284 284 284 284 285 287 287 287 286
251 252 254 256 259 261 263 265 266 267 267 267 269 270 272 273 274 276 275 277 277 278 278 280 282 282 283 283 284 283 282 283 285 284 284 284 285 285 285 285 285 285 285
251 252 254 256 258 259 261 263 264 265 268 269 267 268 269 271 272 273 273 274 274 274 274 275 277 277 278 278 278 279 281 280 282 282 282 282 282 282 282 282 283 282 283
258 253 252 253 255 256 258 259 260 262 263 264 265 266 266 267 269 272 272 272 273 274 274 275 275 276 278 275 277 277 278 278 279 279 280 280 280 279 281 281 280 281 280
278 271 277 274 270 259 262 261 263 263 262 264 264 266 266 266 267 268 268 269 270 271 271 272 273 274 274 275 275 276 276 276 277 277 277 277 277 279 279 277 281 281 280
274 275 272 268 268 267 265 265 265 263 264 268 264 266 264 266 266 268 269 270 271 269 272 273 274 274 273 274 274 274 274 275 273 273 274 274 275 275 275 276 277 276 276
277 277 276 275 274 273 271 269 267 266 266 264 266 268 267 267 265 265 268 268 269 270 271 272 273 273 273 273 273 273 272 272 273 273 274 273 273 275 276 277 277 278 279